Preview of NWS' New Version of Forecast
This preview is not operational and should not be used for support decisions.

Regional Weather Roundup (RWR)

Issued by National Weather Service (NWS)

                            
000
ASUS45 KCYS 250710
RWRWY 

WYOMING REGIONAL WEATHER ROUNDUP
NATIONAL WEATHER SERVICE CHEYENNE WY
100 AM MDT SUN AUG 25 2019

NOTE:  "FAIR" INDICATES FEW OR NO CLOUDS BELOW 12,000 FEET
WITH NO SIGNIFICANT WEATHER AND/OR OBSTRUCTIONS TO VISIBILITY.

WYZ001-250800-
YELLOWSTONE NATIONAL PARK
  
CITY           SKY/WX    TMP DP  RH WIND       PRES   REMARKS
LK YELLOWSTONE   N/A     59  32  36 W7        30.13F                  
W YELLOWSTONE  NOT AVBL                                               

$$
WYZ002>013-054>058-071-098>099-250800-
NORTHERN WYOMING
  
CITY           SKY/WX    TMP DP  RH WIND       PRES   REMARKS
JACKSON        FAIR      71  30  21 W12       30.06R                  
CODY           FAIR      62  44  51 N6        29.90R                  
GREYBULL       FAIR      66  45  46 E5        29.79F                  
WORLAND        FAIR      63  48  58 S7        29.82S                  
SHERIDAN       FAIR      62  55  77 CALM      29.81F                  
BUFFALO        FAIR      67  46  47 S13         N/A                   
GILLETTE       FAIR      61  53  75 S7        29.88S                  
HULETT         FAIR      61  52  72 S3        29.88F                  
NEWCASTLE      FAIR      55  52  88 CALM      29.90                   

$$
WYZ014>020-022>026-101>103-250800-
CENTRAL WYOMING
  
CITY           SKY/WX    TMP DP  RH WIND       PRES   REMARKS
BIG PINEY      FAIR      57  36  45 W7        30.14F                  
PINEDALE       FAIR      46  36  66 W6        30.17R                  
DUBOIS         FAIR      64  30  27 W14       30.08F                  
LANDER         FAIR      73  34  23 MISG      29.99S                  
RIVERTON       FAIR      68  36  30 NW5       29.96S                  
CASPER         FAIR      56  44  64 NW6       29.95S                  
DOUGLAS        FAIR      60  46  59 E7        29.93F                  

$$
WYZ021-027>030-104>119-250800-
SOUTHERN WYOMING
  
CITY           SKY/WX    TMP DP  RH WIND       PRES   REMARKS
EVANSTON       FAIR      60  29  30 SW10      30.17F                  
KEMMERER       FAIR      61  27  27 SW5       30.18S                  
ROCK SPRINGS   FAIR      63  29  27 SW13      30.14S                  
DIXON          FAIR      50  31  47 S7G16     30.17R                  
RAWLINS        FAIR      70  32  24 W18G30    30.10F                  
SARATOGA       FAIR      54  32  43 CALM      30.15F                  
LARAMIE        FAIR      57  29  34 SW13      30.13S                  
CHEYENNE       FAIR      59  48  67 W5        30.05F                  
TORRINGTON     FAIR      61  59  93 E8        29.90F                  
PINE BLUFFS    FAIR      55  52  88 CALM      30.01F                  

$$
  

000
ASUS45 KCYS 250710
RWRWY 

WYOMING REGIONAL WEATHER ROUNDUP
NATIONAL WEATHER SERVICE CHEYENNE WY
100 AM MDT SUN AUG 25 2019

NOTE:  "FAIR" INDICATES FEW OR NO CLOUDS BELOW 12,000 FEET
WITH NO SIGNIFICANT WEATHER AND/OR OBSTRUCTIONS TO VISIBILITY.

WYZ001-250800-
...YELLOWSTONE NATIONAL PARK...
  
CITY           SKY/WX    TMP DP  RH WIND       PRES   REMARKS
LK YELLOWSTONE   N/A     59  32  36 W7        30.13F                  
W YELLOWSTONE  NOT AVBL                                               

$$
WYZ002>013-054>058-071-098>099-250800-
...NORTHERN WYOMING...
  
CITY           SKY/WX    TMP DP  RH WIND       PRES   REMARKS
JACKSON        MOCLDY    71  30  21 W12       30.06R                  
CODY           PTCLDY    62  44  51 N6        29.90R                  
GREYBULL       MOCLDY    66  45  46 E5        29.79F                  
WORLAND        MOCLDY    63  48  58 S7        29.82S                  
SHERIDAN       MOCLDY    62  55  77 CALM      29.81F                  
BUFFALO        MOCLDY    67  46  47 S13         N/A                   
GILLETTE       MOCLDY    61  53  75 S7        29.88S                  
HULETT         FAIR      61  52  72 S3        29.88F                  
NEWCASTLE      FAIR      55  52  88 CALM      29.90S                  

$$
WYZ014>020-022>026-101>103-250800-
...CENTRAL WYOMING...
  
CITY           SKY/WX    TMP DP  RH WIND       PRES   REMARKS
BIG PINEY      PTCLDY    57  36  45 W7        30.14F                  
PINEDALE       PTCLDY    46  36  66 W6        30.17R                  
DUBOIS         FAIR      64  30  27 W14       30.08F                  
LANDER         MOCLDY    73  34  23 MISG      29.99S                  
RIVERTON       CLOUDY    68  36  30 NW5       29.96S                  
CASPER         MOCLDY    56  44  64 NW6       29.95S                  
DOUGLAS        PTCLDY    60  46  59 E7        29.93F                  

$$
WYZ021-027>030-104>119-250800-
...SOUTHERN WYOMING...
  
CITY           SKY/WX    TMP DP  RH WIND       PRES   REMARKS
EVANSTON       CLEAR     60  29  30 SW10      30.17F                  
KEMMERER       PTCLDY    61  27  27 SW5       30.18S                  
FORT BRIDGER   NOT AVBL                                               
ROCK SPRINGS   MOCLDY    63  29  27 SW13      30.14S                  
DIXON          FAIR      50  31  47 S7G16     30.17R                  
RAWLINS        MOCLDY    70  32  24 W18G30    30.10F                  
SARATOGA       FAIR      54  32  43 CALM      30.15F                  
LARAMIE        CLEAR     57  29  34 SW13      30.13S                  
CHEYENNE       CLEAR     59  48  67 W5        30.05F                  
TORRINGTON     CLEAR     61  59  93 E8        29.90F                  
PINE BLUFFS    FAIR      55  52  88 CALM      30.01F                  

$$